Simultaneous Nadir Overpasses (SNOs) Predictions

Prediction of SNOs between AQUA and NPP Satellite Orbit:

Table of predicted SNOs for the next 14.0 days since TLE Epoch: 5/10/2019
Index Date (AQUA) Time (AQUA) Lat,Lon (AQUA) SZA (AQUA ) Date (NPP) Time (NPP) Lat,Lon (NPP) SZA (NPP ) Distance(km) Time Diff (sec)
1 05/11/2019 21:50:09 -72.15, -97.18 96.33 05/11/2019 21:48:55 -72.22, -97.56 96.22 15.10 74
2 05/11/2019 22:38:18 76.10, 79.76 79.30 05/11/2019 22:38:19 76.10, 79.79 79.29 0.72 1
3 05/11/2019 23:23:54 -81.44, -39.28 113.70 05/11/2019 23:25:07 -80.79, -40.52 114.01 75.45 73
4 05/14/2019 14:05:36 -75.30, 25.67 100.43 05/14/2019 14:04:49 -75.31, 25.66 100.39 0.19 47
5 05/14/2019 14:54:36 76.58,-162.80 78.09 05/14/2019 14:55:05 76.59,-162.70 78.04 2.91 29
6 05/17/2019 06:21:52 -75.89, 143.23 101.71 05/17/2019 06:21:33 -75.90, 143.29 101.71 1.71 19
7 05/17/2019 07:11:02 76.66, -46.63 77.39 05/17/2019 07:12:00 76.66, -46.65 77.34 0.52 58
8 05/19/2019 21:49:08 75.07, 89.15 78.68 05/19/2019 21:48:00 75.07, 89.19 78.73 1.30 68
9 05/19/2019 22:38:17 -75.98,-100.62 102.38 05/19/2019 22:38:27 -75.97,-100.69 102.37 2.08 10
10 05/22/2019 14:05:32 75.24,-154.49 77.95 05/22/2019 14:04:53 75.24,-154.55 78.00 1.82 39




NCC Satellite Simultaneous Nadir Overpasses (SNOs) Prediction Service
